Other Public Products
Issued by NWS Grand Forks, ND

Home | Current Version | Previous Version | Text Only | Print | Product List | Glossary On
Versions: 1 2 3 4 5 6 7 8 9 10 11 12 13 14 15 16 17 18 19 20 21 22 23 24 25 26 27 28 29 30 31 32 33 34 35 36 37 38 39 40 41 42 43 44 45 46 47 48 49 50
000
FPUS83 KFGF 290431
OPUFGF
PRAIRIE TO PINES WEATHER ROUNDUP
NATIONAL WEATHER SERVICE EASTERN NORTH DAKOTA/GRAND FORKS ND
1000 PM CST FRI NOV 28 2014

 **SATELLITE DATA USED TO AUGMENT SKY COVER AT AUTOMATED STATIONS**
 *****  WEATHER ACROSS EASTERN NORTH DAKOTA  *****

CITY           SKY/WX    TMP DP  RH WIND       PRES   REMARKS
GRAND FORKS    CLOUDY    18  11  74 S13       29.63R WCI   5
GRAND FORKS AF CLOUDY    17  12  81 S8        29.62S WCI   6
GRAND CITY NWS   N/A     16 N/A N/A S9          N/A  WCI   4
BUXTON           N/A     17  14  90 SE12        N/A  WCI   4
DEVILS LAKE    CLOUDY    14   3  62 S12       29.49F WCI   0
FARGO          CLOUDY    20  13  74 SE15      29.60F WCI   6
WAHPETON ARPT  CLOUDY    19  14  79 SE14      29.62F WCI   6
$$

 *****  WEATHER ACROSS CENTRAL AND WESTERN NORTH DAKOTA  *****

CITY           SKY/WX    TMP DP  RH WIND       PRES   REMARKS
JAMESTOWN      PTCLDY    15  12  88 SE13      29.50F WCI   1
BISMARCK       PTCLDY    16  13  88 SE8       29.46F WCI   5
MINOT          PTCLDY     9   5  84 E6        29.44F WCI  -1
MINOT AFB      PTCLDY    10   8  90 E6        29.45F WCI   0
GARRISON         N/A     14  11  87 NE8       29.41F WCI   3
WILLISTON      CLOUDY    19  15  84 NW5       29.44R WCI  12
DICKINSON      CLOUDY    41  31  67 SW9       29.34F
HETTINGER      CLOUDY    43  31  62 CALM      29.41F
$$

 *****  OTHER OBSERVATIONS NORTHEAST NORTH DAKOTA  *****

CITY           SKY/WX    TMP DP  RH WIND       PRES   REMARKS
WALHALLA         N/A     14  14 100 S6        29.61R WCI   5
LANGDON        CLOUDY    12   9  85 S10       29.52R WCI  -1
CAVALIER       MOCLDY    16  10  79 SE6       29.59F WCI   7
GRAFTON        CLOUDY    16  12  86 SE12      29.60F WCI   3
CANDO          CLOUDY    14  10  85 SE10      29.50F WCI   1
FORT TOTTEN    NOT AVBL
ROLLA          CLOUDY    10   9  92 S8        29.49F WCI  -1
RUGBY          FAIR      10   7  85 SE12      29.47F WCI  -4
 ***** THE ABOVE OBSERVATIONS ARE NON NWS ARE NOT QUALITY
        CONTROLLED AND MAY MIS-REPORT RAIN FOR SNOW...
$$

 *****  OTHER OBSERVATIONS SOUTHEAST NORTH DAKOTA *****

CITY           SKY/WX    TMP DP  RH WIND       PRES   REMARKS
COOPERSTOWN    NOT AVBL
VALLEY CITY    CLOUDY    16  16 100 S14       29.52F WCI   1
OAKES            N/A     18  16  93 SE9       29.53F WCI   6
GWINNER        CLOUDY    19  18  93 SE13      29.56F WCI   7
BUFFALO        NOT AVBL
WYNDMERE         N/A     19  16  86 S13         N/A  WCI   7
 ***** THE ABOVE OBSERVATIONS ARE NON NWS ARE NOT QUALITY
       CONTROLLED AND MAY MIS-REPORT RAIN FOR SNOW...
$$

  *****  WEATHER ACROSS NORTHERN MINNESOTA  *****

CITY           SKY/WX    TMP DP  RH WIND       PRES   REMARKS
FLAG ISLAND    CLOUDY    16  12  86 SE9       29.63F WCI   4
WARROAD        CLOUDY    16  12  86 SE7       29.64R WCI   6
ROSEAU         CLOUDY    18  12  79 SE10      29.60F WCI   6
HALLOCK        MOCLDY    18  12  79 S9        29.62F WCI   6
THF RVR FALLS  CLOUDY    18  12  79 SE6       29.63R WCI   9
HALSTAD          N/A     18  12  77 S17         N/A  WCI   3
FOSSTON        CLOUDY    16  10  79 SE7       29.60F WCI   6
BAUDETTE       LGT SNOW  16  12  84 VRB6      29.63F FOG     WCI   7
WASKISH        CLOUDY    18  12  79 SE5       29.64F WCI  11
CROOKSTON      FAIR      18  12  79 S12       29.64S WCI   5
$$
  *****  WEATHER ACROSS CENTRAL AND WEST MINNESOTA  *****

CITY           SKY/WX    TMP DP  RH WIND       PRES   REMARKS
BEMIDJI        CLOUDY    16  11  82 SE10G16   29.62F WCI   3
PARK RAPIDS    CLOUDY    16  12  84 SE15      29.64F WCI   1
WADENA         CLOUDY    16  12  86 SE14      29.62F WCI   1
DETROIT LAKES  CLOUDY    18  16  93 S18       29.60F WCI   2
MOORHEAD       MOCLDY    19  18  93 S16G23    29.62F WCI   5
FERGUS FALLS   CLOUDY    19  12  73 SE15      29.65F WCI   5
ELBOW LAKE     CLOUDY    19  16  87 SE17G24   29.60F WCI   4
MORRIS MN      PTCLDY    19  18  93 SE20      29.60F WCI   4
STAPLES        CLOUDY    16  12  86 SE8       29.64F WCI   5
WHEATON        CLOUDY    18  16  93 SE13G20   29.64S WCI   4
$$
  *****  WEATHER ELSEWHERE ACROSS MINNESOTA  *****

CITY           SKY/WX    TMP DP  RH WIND       PRES   REMARKS
DULUTH         CLOUDY    17  12  80 SE9       29.75F WCI   6
INTRNTL FALLS  LGT SNOW  17  13  84 SE8       29.67F VSB 3/4 WCI   7
ELY            LGT SNOW  18  16  93 S7        29.71F WCI   8
CLOQUET        CLOUDY    18  12  79 SE6       29.72F WCI   9
BRAINERD       CLOUDY    16  12  84 SE7       29.70F WCI   6
HIBBING        CLOUDY    17  11  77 S7        29.72F WCI   8
ALEXANDRIA     CLOUDY    19  14  81 SE14      29.63F WCI   6
SAINT CLOUD    CLOUDY    21  14  74 SE6       29.71F WCI  13
MINNEAPOLIS    CLOUDY    23  18  81 SE10      29.74F WCI  12
$$

  *****  WEATHER ACROSS SOUTH DAKOTA  *****

CITY           SKY/WX    TMP DP  RH WIND       PRES   REMARKS
SIOUX FALLS    PTCLDY    24  21  88 E6        29.59F WCI  17
BROOKINGS      NOT AVBL
WATERTOWN      MOCLDY    20  17  88 SE8       29.55F WCI  10
HURON          CLEAR     27  24  89 SE7       29.55F WCI  19
SISSETON         N/A     18  17  96 S14       29.60F WCI   4
ABERDEEN       PTCLDY    14  10  84 S5        29.55F WCI   6
MITCHELL       CLEAR     28  25  88 SE9       29.56F WCI  19
PIERRE         CLEAR     28  24  85 SE8       29.48F WCI  20
MOBRIDGE       CLEAR     24  20  84 SE10      29.45F WCI  14
RAPID CITY     MOCLDY    50  23  34 W5        29.51S
$$

  *****  SOME WEATHER IN NEARBY STATES *****

CITY           SKY/WX    TMP DP  RH WIND       PRES   REMARKS
GLASGOW MT     CLOUDY    15   9  76 NW18      29.52R WCI  -2
GREAT FALLS MT CLOUDY     2  -2  83 N15       29.56R WCI -17
CHEYENNE WY    MOCLDY    48  14  25 SW15      29.80F
SCOTTSBLUFF NE CLOUDY    55  18  23 W14       29.68F
OMAHA NE       MOCLDY    40  31  70 SE10      29.62F
DES MOINES IA  PTCLDY    38  30  73 SE10      29.68F
DAVENPORT IA   CLEAR     32  27  81 SE12      29.81F WCI  23
CHICAGO IL     CLOUDY    33  29  85 S8        29.91F
EAU CLAIRE WI  MOCLDY    22  17  81 E8        29.79F WCI  12
LA CROSSE WI   MOCLDY    26  20  77 E6        29.82F WCI  19
$$

  *****  SOME NATIONAL WEATHER *****

CITY           SKY/WX    TMP DP  RH WIND       PRES   REMARKS
LA GUARDIA NY  PTCLDY    30  13  49 N9        30.28R WCI  22
RALEIGH NC     PTCLDY    29  23  78 CALM      30.30F
ATLANTA GA     CLEAR     39  20  46 CALM      30.27S
NEW ORLEANS LA CLEAR     48  43  82 SE5       30.27F
OKLAHOMA CITY  PTCLDY    56  45  66 S14       29.84F
ALBUQUERQUE NM CLEAR     44  20  38 E3        30.08F
SALT LAKE CITY MOCLDY    58  15  18 S16       29.77F
LOS ANGELES CA PTCLDY    62  59  90 W3        29.90S
BOISE ID       MOCLDY    51  32  48 CALM      29.65S
SEATTLE WA     LGT RAIN  38  36  92 SE7       29.52R
$$

*** WEATHER ACROSS MANITOBA...SASKATCHEWAN AND ONTARIO ***
                ***ONTARIO***

CITY           SKY/WX    TMP DP  RH WIND       PRES   REMARKS
GERALDTON      MOCLDY    -6 -11  77 E2        29.92F
THUNDER BAY    FLURRIES  19  16  86 E12       29.85F WCI   7
SIOUX LOOKOUT  LGT SNOW   9   1  72 E6        29.78F VSB 3/4 WCI  -1
TORONTO        CLOUDY    23  12  63 NW6       30.18F WCI  16
BIG TROUT LK   PTCLDY   -20 -26  76 CALM      29.98R
PICKLE LAKE    NOT AVBL
DRYDEN         LGT SNOW  10   7  85 E9        29.73F WCI  -2
KENORA         LGT SNOW  10   7  85 E13       29.65F DRFTSNOWWCI  -5
$$
                *** MANITOBA***

CITY           SKY/WX    TMP DP  RH WIND       PRES   REMARKS
BRANDON        CLOUDY     7   3  85 E14G21    29.56F WCI -10
DAUPHIN        FLURRIES   7   3  85 E9        29.64F WCI  -7
ISLAND LAKE    FLURRIES  -9 -17  70 NE5       29.93S WCI -21
PILOT MOUND      N/A     10   9  92 SE9         N/A  WCI  -2
THE PAS        LGT SNOW  -6 -11  77 E7        29.82F VSB 1   WCI -20
THOMPSON       CLOUDY   -13 -18  77 N2        29.92F
WINNIPEG       FLURRIES  12   7  79 E10       29.66F WCI  -1
LYNN LAKE      CLOUDY   -13 -18  77 N5        29.87F WCI -25
CHURCHILL      CLEAR    -17 -22  76 W10       29.92F WCI -37
GILLAM         CLOUDY   -18 -24  76 SW5       29.96F WCI -31
$$
                ***SASKATCHEWAN***

CITY           SKY/WX    TMP DP  RH WIND       PRES   REMARKS
ESTEVAN        CLOUDY    12   9  85 SE7       29.45S WCI   2
KINDERSLEY     LGT SNOW  -4  -9  77 NW14G23   29.65R DRFTSNOWWCI -24
LLOYDMINSTER   FLURRIES  -8 -13  77 N12       29.69F WCI -27
PRINCE ALBERT  FLURRIES  -6 -11  77 NE9       29.71R WCI -22
REGINA         LGT SNOW  12   9  85 VRB2      29.48F
YORKTON        FLURRIES   3   0  85 E9        29.57F WCI -11


USA.gov is the U.S. government's official web portal to all federal, state and local government web resources and services.